Weather History for Lancaster, OH

Change the Weather History Date:

Thursday, November 29, 2012

  Actual Average Record
Temperature  
Mean Temperature 34 °F -  
Max Temperature 48 °F 44 °F 69 °F (1990)
Min Temperature 19 °F 27 °F 10 °F (1955)
Degree Days  
Heating Degree Days 32    
Moisture  
Dew Point 20 °F    
Average Humidity 69    
Maximum Humidity 85    
Minimum Humidity 32    
Precipitation  
Precipitation 0.00 in - - ()
Sea Level Pressure  
Sea Level Pressure 30.36 in    
Wind  
Wind Speed 2 mph (SSW)    
Max Wind Speed 10 mph    
Max Gust Speed -    
Visibility 8 miles    
Events      
Averages and records for this station are not official NWS values.
T = Trace of Precipitation, MM = Missing Value Source: NWS Daily Summary

Daily Weather History Graph

Daily Weather History Graph

Search for Another Location

Airport:

Trip Planner

Search our weather history database for the weather conditions in past years. The results will help you decide how hot, cold, wet, or windy it might be!

Date:

Astronomy

Nov. 29, 2012 Rise Set
Actual Time 7:31 AM EST 5:07 PM EST
Civil Twilight 7:01 AM EST 5:36 PM EST
Nautical Twilight 6:27 AM EST 6:10 PM EST
Astronomical Twilight 5:55 AM EST 6:42 PM EST
Moon 6:08 PM EST (11/29) 8:16 AM EST (11/29)
Length of Visible Light 10h 35m
Length of Day
9h 35m
Full, 99% of the Moon is Illuminated
Nov 29
Full
Dec 6
Last Quarter
Dec 13
New
Dec 20
First Quarter
Dec 28
Full

Hourly Weather History & Observations

Time (EST) Temp. Windchill Dew Point Humidity Pressure Visibility Wind Dir Wind Speed Gust Speed Precip Events Conditions
12:53 AM 19.9 °F - 16.0 °F 85% 30.40 in 7.0 mi Calm Calm - N/A   Clear
2:53 AM 19.0 °F - 15.1 °F 85% 30.42 in 6.0 mi Calm Calm - N/A   Clear
3:53 AM 19.0 °F - 15.1 °F 85% 30.42 in 6.0 mi Calm Calm - N/A   Clear
4:53 AM 19.9 °F - 16.0 °F 85% 30.41 in 6.0 mi Calm Calm - N/A   Clear
5:53 AM 19.0 °F - 15.1 °F 85% 30.43 in 6.0 mi Calm Calm - N/A   Clear
6:53 AM 21.0 °F 16.2 °F 17.1 °F 85% 30.43 in 6.0 mi SSE 3.5 mph - N/A   Clear
7:53 AM 21.0 °F 16.2 °F 17.1 °F 85% 30.44 in 5.0 mi SSE 3.5 mph - N/A   Clear
8:53 AM 27.0 °F 23.0 °F 23.0 °F 85% 30.43 in 5.0 mi SSE 3.5 mph - N/A   Clear
9:53 AM 33.1 °F 30.0 °F 26.1 °F 75% 30.43 in 6.0 mi South 3.5 mph - N/A   Haze
11:53 AM 44.1 °F 39.5 °F 25.0 °F 47% 30.39 in 10.0 mi SW 8.1 mph - N/A   Clear
12:53 PM 45.0 °F 40.6 °F 24.1 °F 44% 30.37 in 10.0 mi SW 8.1 mph - N/A   Clear
1:53 PM 46.9 °F - 19.9 °F 34% 30.33 in 10.0 mi SSW 9.2 mph - N/A   Clear
2:53 PM 48.0 °F - 19.0 °F 32% 30.31 in 10.0 mi SW 10.4 mph - N/A   Clear
3:53 PM 46.9 °F - 19.9 °F 34% 30.30 in 10.0 mi SW 8.1 mph - N/A   Clear
4:53 PM 43.0 °F 41.3 °F 19.0 °F 38% 30.29 in 10.0 mi SSW 3.5 mph - N/A   Clear
5:53 PM 33.1 °F - 19.9 °F 59% 30.31 in 10.0 mi Calm Calm - N/A   Clear
6:53 PM 28.0 °F - 21.0 °F 75% 30.31 in 10.0 mi Calm Calm - N/A   Clear
7:53 PM 28.0 °F - 21.9 °F 78% 30.31 in 10.0 mi Calm Calm - N/A   Clear
8:53 PM 27.0 °F - 21.9 °F 81% 30.30 in 10.0 mi Calm Calm - N/A   Clear
9:53 PM 28.0 °F - 21.0 °F 75% 30.30 in 10.0 mi Calm Calm - N/A   Clear
10:53 PM 28.0 °F - 23.0 °F 81% 30.29 in 10.0 mi Calm Calm - N/A   Overcast
11:53 PM 28.0 °F - 21.9 °F 78% 30.29 in 10.0 mi Calm Calm - N/A   Mostly Cloudy